Regional Weather Roundup
Issued by NWS

Current Version | Previous Version | Text Only | Print | Product List | Glossary On
Versions: 1 2 3 4 5 6 7 8 9 10 11 12 13 14 15 16 17 18 19 20 21 22 23 24 25 26 27 28 29 30 31 32 33 34 35 36 37 38 39 40 41 42 43 44 45 46 47 48 49 50
000
ASUS46 KSEW 202210
RWRWA

WASHINGTON REGIONAL WEATHER ROUNDUP
NATIONAL WEATHER SERVICE SEATTLE WA
300 PM PDT MON OCT 20 2014

NOTE:"FAIR" INDICATES FEW OR NO CLOUDS BELOW 12,000 FEET WITH NO
SIGNIFICANT WEATHER AND/OR OBSTRUCTIONS TO VISIBILITY.

WAZ505-507>509-202300-
SEATTLE, TACOMA, EVERETT, AND VICINITY

CITY           SKY/WX    TMP DP  RH WIND       PRES   REMARKS
EVERETT        CLOUDY    60  52  74 S14       29.76S
BOEING FIELD   CLOUDY    64  55  72 S9        29.75F
RENTON         CLOUDY    60  57  89 S3        29.75F
SEATAC AIRPORT CLOUDY    61  55  81 S8        29.77S
JBLM-MCCHORD   PTSUNNY   63  57  80 S6        29.76S
PUYALLUP       NOT AVBL
JBLM-FT LEWIS  DRIZZLE   61  56  85 S6        29.76R
TACOMA NARROWS LGT RAIN  59  53  80 S9        29.76F
$$

WAZ001-503-506-510-514-515-202300-
NORTH INTERIOR

CITY           SKY/WX    TMP DP  RH WIND       PRES   REMARKS
BELLINGHAM     CLOUDY    60  52  74 S5        29.73R
FRIDAY HARBOR  PTSUNNY   60  54  80 CALM      29.73S
EASTSOUND      PTSUNNY   59  55  88 S5        29.71S
PORT ANGELES   PTSUNNY   59  55  87 VRB3      29.72S
NAS WHIDBEY    PTSUNNY   65  53  65 SE17      29.73S
BURLINGTON     MOSUNNY   63  63 100 S10G20    29.74S
$$

WAZ020-022-039-040-504-511-512-202300-
SOUTHWEST INTERIOR

CITY           SKY/WX    TMP DP  RH WIND       PRES   REMARKS
SHELTON        PTSUNNY   63  51  65 SW10      29.72F
OLYMPIA        CLOUDY    61  55  81 S5        29.75S
CHEHALIS       FAIR      63  55  77 S9        29.75F
KELSO          CLOUDY    61  54  77 S10G18    29.81S
VANCOUVER      CLOUDY    63  53  70 VRB7      29.79S
SCAPPOOSE, OR  RAIN      59  55  87 S5        29.79R FOG
PORTLAND, OR   PTSUNNY   63  54  72 S14       29.79F
$$

WAZ021-516-517-202300-
WASHINGTON COAST

CITY           SKY/WX    TMP DP  RH WIND       PRES   REMARKS
FORKS          LGT RAIN  56  54  93 SE3       29.71S FOG
HOQUIAM        MOSUNNY   62  53  72 S18       29.74S
ASTORIA, OR    MOSUNNY   62  54  74 S13G20    29.75S
$$

WAZ019-023-024-040-518-519-202300-
CASCADE MOUNTAINS AND COLUMBIA GORGE

CITY           SKY/WX    TMP DP  RH WIND       PRES   REMARKS
STAMPEDE PASS  NOT AVBL
TROUTDALE, OR  PTSUNNY   64  53  67 S8        29.79S
THE DALLES, OR CLOUDY    60  54  80 W3        29.77F
$$

WAZ026-027-041>044-520-521-202300-
EAST SLOPES

CITY           SKY/WX    TMP DP  RH WIND       PRES   REMARKS
OMAK           CLOUDY    56  50  80 CALM      29.73R
WENATCHEE      LGT RAIN  58  52  80 NW5       29.76R
ELLENSBURG     LGT RAIN  57  53  86 E6        29.78R FOG
YAKIMA         CLOUDY    59  54  83 NE6       29.79R
$$

WAZ028-034-035-202300-
COLUMBIA BASIN

CITY           SKY/WX    TMP DP  RH WIND       PRES   REMARKS
EPHRATA        CLOUDY    63  50  62 SW13      29.73R
MOSES LAKE     PTSUNNY   66  51  58 CALM      29.73S
PASCO          PTSUNNY   73  47  39 W12       29.72R
HERMISTON, OR  PTSUNNY   71  48  43 W20       29.75R
$$

WAZ036>038-202300-
NORTHEAST WASHINGTON

CITY           SKY/WX    TMP DP  RH WIND       PRES   REMARKS
SPOKANE GEIGER PTSUNNY   68  44  42 SW9       29.75F
SPOKANE FELTS  MOSUNNY   70  43  37 W7        29.75R
FAIRCHILD AFB  MOSUNNY   67  46  45 SW13      29.76S
COEURDALENE,ID PTSUNNY   70  43  37 W12       29.74S
DEER PARK      MOSUNNY   69  45  41 SW12G21   29.75S
$$

WAZ029>033-202300-
SOUTHEAST WASHINGTON

CITY           SKY/WX    TMP DP  RH WIND       PRES   REMARKS
PULLMAN        SUNNY     70  38  31 W12       29.77S
LEWISTON, ID   SUNNY     73  38  27 W5        29.70F
WALLA WALLA    PTSUNNY   69  49  48 VRB3      29.74S
PENDLETON, OR  PTSUNNY   67  48  50 W12       29.75S
$$


USA.gov is the U.S. government's official web portal to all federal, state and local government web resources and services.